(254679) = 2002 EN159 = 2005 LU50

Discovered at Kitt Peak on 2005-06-13 by Spacewatch.

Orbit

Orbit type: Jupiter Trojan

Note: WebGL enabled browser required.

epoch2024-03-31.0
epoch JD2460400.5
perihelion date2022-06-03.24914
perihelion JD2459733.74914
argument of perihelion (°)260.76775
ascending node (°)154.29484
inclination (°)13.48047
eccentricity0.1213769
perihelion distance (AU)4.5459374
Tisserand w.r.t. Jupiter2.9
ΔV w.r.t. Earth (km/sec)12.6
semimajor axis (AU)5.1739334
mean anomaly (°)55.83881
mean daily motion (°/day)0.08374760
aphelion distance (AU)5.802
period (years)11.77
P-vector [x]0.56088627
P-vector [y]0.82117730
P-vector [z]0.10523513
Q-vector [x]-0.82169531
Q-vector [y]0.53664762
Q-vector [z]0.19190141
absolute magnitude13.03
phase slope0.15
uncertainty0
referenceMPEC 2024-C181
observations used526
oppositions17
arc length (days)8039
first opposition used2002
last opposition used2024
residual rms (arc-secs)0.62
perturbers coarse indicatorM-v
perturbers precise indicator003Ek
first observation date used2002-02-10.0
last observation date used2024-02-14.0
computer nameMPCLINUX
JD of orbit computation2456789.153610
perihelion JD uncertainty (days)3.3517E-04
argument of perihelion uncertainty (°)3.4542E-05
ascending node uncertainty (°)1.9047E-05
inclination uncertainty (°)6.7925E-06
eccentricity uncertainty 5.9838E-08
perihelion distance uncertainty (AU)3.0814E-07
Minimum Orbit Intersection Distances (in AU)
for orbit epoch: 2460400.5, reference: E2024-GF4
Mercury4.24098
Venus3.84195
Earth3.59101
Mars3.10674
Jupiter0.03755
Saturn4.06796
Uranus12.9895
Neptune24.9135

Observations

532 total observations over interval: 2002 02 10.38418 – 2024 02 14.268784
These data are available for download (format description).

Date (UT) J2000 RA J2000 Dec Magn Location Ref
2002 02 10.38418 11 34 42.97 +06 25 27.0 20.0   704 – Lincoln Laboratory ETS, New Mexico MPS 137113
2002 02 10.39844 11 34 42.67 +06 25 29.5 20.5   704 – Lincoln Laboratory ETS, New Mexico MPS 137113
2002 02 10.42698 11 34 42.12 +06 25 35.5 20.5   704 – Lincoln Laboratory ETS, New Mexico MPS 137113
2002 02 10.44126 11 34 41.83 +06 25 39.6 20.8   704 – Lincoln Laboratory ETS, New Mexico MPS 137113
2002 03 05.24270 11 25 20.277 +08 03 01.93 20.40 V 645 – Apache Point-Sloan Digital Sky Survey MPS 127140
2002 03 05.242700 11 25 20.272 +08 03 01.97 20.38 V 645 – Apache Point-Sloan Digital Sky Survey MPS 127140
2002 03 05.246172 11 25 20.179 +08 03 02.93 21.21   645 – Apache Point-Sloan Digital Sky Survey MPS 127140
2002 03 09.28845 11 23 27.97 +08 20 44.3 20.7 V 291 – LPL/Spacewatch II MPS 137113
2002 03 09.30925 11 23 27.37 +08 20 49.6 20.4 V 291 – LPL/Spacewatch II MPS 137113
2002 03 09.32960 11 23 26.78 +08 20 55.0 20.4 V 291 – LPL/Spacewatch II MPS 137113
2002 03 12.258370 11 22 05.103 +08 33 32.03 20.32 V 645 – Apache Point-Sloan Digital Sky Survey MPS 127140
2002 03 12.261842 11 22 05.001 +08 33 32.93 21.18   645 – Apache Point-Sloan Digital Sky Survey MPS 127140
2002 03 16.24505 11 20 14.54 +08 50 23.4 19.6   704 – Lincoln Laboratory ETS, New Mexico MPS 137113
2002 03 16.25847 11 20 14.05 +08 50 24.2 20.0   704 – Lincoln Laboratory ETS, New Mexico MPS 137113
2002 03 16.27189 11 20 13.74 +08 50 28.4 19.9   704 – Lincoln Laboratory ETS, New Mexico MPS 137113
2002 03 16.28534 11 20 13.36 +08 50 32.3 20.0   704 – Lincoln Laboratory ETS, New Mexico MPS 137113
2003 05 02.22131 13 07 08.79 +05 00 48.3 21.0 V 691 – Steward Observatory, Kitt Peak-Spacewatch MPS 137113
2003 05 02.27094 13 07 07.61 +05 00 55.0 21.1 V 691 – Steward Observatory, Kitt Peak-Spacewatch MPS 137113
2003 05 02.29822 13 07 06.99 +05 00 58.3 21.1 V 691 – Steward Observatory, Kitt Peak-Spacewatch MPS 137113
2005 06 04.35021 16 41 22.59 -05 51 50.2 20.6 V 691 – Steward Observatory, Kitt Peak-Spacewatch MPS 137113
2005 06 04.36764 16 41 22.07 -05 51 49.5 20.5 V 691 – Steward Observatory, Kitt Peak-Spacewatch MPS 137113
2005 06 04.38512 16 41 21.54 -05 51 48.6 20.5 V 691 – Steward Observatory, Kitt Peak-Spacewatch MPS 137113
2005 06 13.34718 16 37 02.91 -05 47 46.6 20.4 V 691 – Steward Observatory, Kitt Peak-Spacewatch MPS 137113
2005 06 13.36471 16 37 02.40 -05 47 46.5 20.5 V 691 – Steward Observatory, Kitt Peak-Spacewatch MPS 137113
2005 06 13.38225 16 37 01.90 -05 47 46.1 20.5 V 691 – Steward Observatory, Kitt Peak-Spacewatch MPS 137113
2005 06 27.22008 16 30 58.74 -05 51 03.7 20.5 V 691 – Steward Observatory, Kitt Peak-Spacewatch MPS 137113
2005 06 27.23572 16 30 58.36 -05 51 04.5 20.5 V 691 – Steward Observatory, Kitt Peak-Spacewatch MPS 137113
2005 06 27.25149 16 30 57.97 -05 51 05.2 20.4 V 691 – Steward Observatory, Kitt Peak-Spacewatch MPS 137113
2005 06 30.21715 16 29 49.19 -05 53 17.5 21.0 V 691 – Steward Observatory, Kitt Peak-Spacewatch MPS 137113
2005 06 30.23271 16 29 48.85 -05 53 17.9 20.7 V 691 – Steward Observatory, Kitt Peak-Spacewatch MPS 137113
2005 06 30.24819 16 29 48.48 -05 53 19.1 20.8 V 691 – Steward Observatory, Kitt Peak-Spacewatch MPS 137113
2008 09 28.16510 22 41 35.16 -11 03 49.2 19.8   704 – Lincoln Laboratory ETS, New Mexico MPS 257948
2008 09 28.20219 22 41 34.31 -11 03 57.9 20.2   704 – Lincoln Laboratory ETS, New Mexico MPS 257948
2008 09 28.21456 22 41 33.99 -11 03 59.8 20.2   704 – Lincoln Laboratory ETS, New Mexico MPS 257948
2008 09 29.24675 22 41 10.96 -11 07 43.9 19.7 V 703 – Catalina Sky Survey MPS 257948
2008 09 29.25837 22 41 10.82 -11 07 45.0 21.2 V 703 – Catalina Sky Survey MPS 257948
2008 09 29.27002 22 41 10.46 -11 07 47.6 19.6 V 703 – Catalina Sky Survey MPS 257948
2008 09 29.28168 22 41 10.28 -11 07 50.0 20.0 V 703 – Catalina Sky Survey MPS 257948
2009 09 16.37061 01 44 46.68 -01 28 58.5 20.0 V 703 – Catalina Sky Survey MPS 294997
2009 09 16.37932 01 44 46.50 -01 29 00.6 20.0 V 703 – Catalina Sky Survey MPS 294997
2009 09 16.38814 01 44 46.24 -01 29 03.0 19.9 V 703 – Catalina Sky Survey MPS 294997
2009 09 16.39694 01 44 46.21 -01 29 06.5 19.6 V 703 – Catalina Sky Survey MPS 294997
2009 10 15.27862 01 32 26.44 -03 44 06.1 19.2 V 703 – Catalina Sky Survey MPS 299371
2009 10 15.28661 01 32 26.23 -03 44 07.7 19.6 V 703 – Catalina Sky Survey MPS 299371
2009 10 15.29458 01 32 25.94 -03 44 09.8 19.5 V 703 – Catalina Sky Survey MPS 299371
2009 10 15.30252 01 32 25.76 -03 44 12.0 19.1 V 703 – Catalina Sky Survey MPS 299371
2009 10 15.86802 01 32 09.08 -03 46 34.8 18.5 V J75 – OAM Observatory, La Sagra MPS 298308
2009 10 15.88160 01 32 08.67 -03 46 38.4 19.3 V J75 – OAM Observatory, La Sagra MPS 298308
2009 10 15.89509 01 32 08.28 -03 46 41.9 19.9 V J75 – OAM Observatory, La Sagra MPS 298308
2009 10 19.22845 01 30 29.24 -04 00 15.3 18.9   704 – Lincoln Laboratory ETS, New Mexico MPS 299371
2009 10 19.24168 01 30 28.73 -04 00 19.2 19.2   704 – Lincoln Laboratory ETS, New Mexico MPS 299371
2009 10 19.25490 01 30 28.39 -04 00 22.0 19.0   704 – Lincoln Laboratory ETS, New Mexico MPS 299371
2009 10 19.26814 01 30 27.99 -04 00 24.7 19.2   704 – Lincoln Laboratory ETS, New Mexico MPS 299371
2009 10 19.28137 01 30 27.54 -04 00 27.5 19.8   704 – Lincoln Laboratory ETS, New Mexico MPS 299371
2009 10 26.86890 01 26 45.78 -04 28 11.5 19.1 V J75 – OAM Observatory, La Sagra MPS 300664
2009 10 26.88071 01 26 45.44 -04 28 14.6 18.5 V J75 – OAM Observatory, La Sagra MPS 300664
2009 10 26.89251 01 26 45.10 -04 28 16.0 19.1 V J75 – OAM Observatory, La Sagra MPS 300664
2009 10 27.23803 01 26 35.19 -04 29 25.1 19.1 V 703 – Catalina Sky Survey MPS 300664
2009 10 27.24583 01 26 35.01 -04 29 25.8 19.2 V 703 – Catalina Sky Survey MPS 300664
2009 10 27.25360 01 26 34.80 -04 29 27.6 19.5 V 703 – Catalina Sky Survey MPS 300664
2009 10 27.26134 01 26 34.47 -04 29 29.4 19.0 V 703 – Catalina Sky Survey MPS 300664
2009 12 02.13859 01 14 43.69 -05 20 09.6 18.5 J W91 – VHS-VISTA, Cerro Paranal MPS 678306
2009 12 02.14060 01 14 43.66 -05 20 09.5 18.5 J W91 – VHS-VISTA, Cerro Paranal MPS 678306
2009 12 02.14514 01 14 43.63 -05 20 09.4 18.1 H W91 – VHS-VISTA, Cerro Paranal MPS 678306
2009 12 02.14720 01 14 43.61 -05 20 09.3 18.0 H W91 – VHS-VISTA, Cerro Paranal MPS 678306
2009 12 02.15167 01 14 43.58 -05 20 09.1 17.7 K W91 – VHS-VISTA, Cerro Paranal MPS 678306
2009 12 02.15456 01 14 43.54 -05 20 09.0 17.8 K W91 – VHS-VISTA, Cerro Paranal MPS 678306
2009 12 02.15762 01 14 43.52 -05 20 09.0 18.5 J W91 – VHS-VISTA, Cerro Paranal MPS 678306
2009 12 02.16383 01 14 43.47 -05 20 08.7 18.0 H W91 – VHS-VISTA, Cerro Paranal MPS 678306
2009 12 02.17033 01 14 43.40 -05 20 08.5 18.2 K W91 – VHS-VISTA, Cerro Paranal MPS 678306
2010 11 03.38742 04 35 44.04 +05 05 55.1 20.0   704 – Lincoln Laboratory ETS, New Mexico MPS 353764
2010 11 03.40002 04 35 43.69 +05 05 53.8 20.2   704 – Lincoln Laboratory ETS, New Mexico MPS 353764
2010 11 03.42525 04 35 43.03 +05 05 49.4 19.9   704 – Lincoln Laboratory ETS, New Mexico MPS 353764
2010 11 12.33199 04 31 37.38 +04 42 04.6 19.0 V 703 – Catalina Sky Survey MPS 357416
2010 11 12.34002 04 31 37.12 +04 42 03.4 19.0 V 703 – Catalina Sky Survey MPS 357416
2010 11 12.34810 04 31 36.94 +04 42 02.1 18.9 V 703 – Catalina Sky Survey MPS 357416
2010 11 12.35619 04 31 36.62 +04 42 01.0 19.4 V 703 – Catalina Sky Survey MPS 357416
2010 11 27.35759 04 23 33.25 +04 13 05.3 18.9 V 703 – Catalina Sky Survey MPS 381087
2010 11 27.36442 04 23 32.92 +04 13 05.2 18.9 V 703 – Catalina Sky Survey MPS 381087
2010 11 27.37132 04 23 32.60 +04 13 05.0 19.1 V 703 – Catalina Sky Survey MPS 381087
2010 11 27.37825 04 23 32.49 +04 13 03.1 19.0 V 703 – Catalina Sky Survey MPS 381087
2010 12 08.23090 04 17 30.54 +04 03 18.3 19.1 R H15 – ISON-NM Observatory, Mayhill MPS 362644
2010 12 08.24604 04 17 30.04 +04 03 17.8 19.1 R H15 – ISON-NM Observatory, Mayhill MPS 362644
2010 12 08.25956 04 17 29.60 +04 03 17.4 18.9 R H15 – ISON-NM Observatory, Mayhill MPS 362644
2010 12 08.27312 04 17 29.15 +04 03 17.0 19.0 R H15 – ISON-NM Observatory, Mayhill MPS 362644
2010 12 10.20178 04 16 27.16 +04 02 40.2 19.8   704 – Lincoln Laboratory ETS, New Mexico MPS 362644
